KC3UTO Weather Reports


Display with metric or nautical units.
time (UTC)temp
F
wind
direction
speed
MPH
gust
MPH
rain 1hr
in
rain 24hr
in
rain mn
in
humidity
%
barometer
mb
20260831233814 72 42 1.0 2.0 0.00 0.02 0.02 87 1017.5
20260831233309 72 36 1.0 2.0 0.00 0.02 0.02 86 1017.7
20260831232804 73 18 2.0 2.0 0.00 0.02 0.02 86 1017.7
20260831232301 73 30 2.0 2.0 0.00 0.02 0.02 85 1017.5
20260831231756 73 32 2.0 2.0 0.00 0.02 0.02 84 1017.5
20260831231253 74 26 1.0 2.0 0.00 0.02 0.02 83 1017.7
20260831230748 75 25 1.0 2.0 0.00 0.02 0.02 82 1017.7
20260831230242 75 343 0.0 1.0 0.00 0.02 0.02 82 1017.7
20260831225741 75 24 0.0 2.0 0.00 0.02 0.02 81 1017.7
20260831225237 75 5 0.0 2.0 0.00 0.02 0.02 80 1017.9
20260831224732 76 316 1.0 1.0 0.00 0.02 0.02 78 1017.8
20260831224228 75 25 1.0 2.0 0.00 0.02 0.02 80 1017.8
20260831223723 75 319 0.0 2.0 0.00 0.02 0.02 80 1017.9
20260831223219 75 337 0.0 2.0 0.00 0.02 0.02 80 1017.8
20260831222715 75 284 0.0 1.0 0.00 0.02 0.02 80 1017.9
20260831222210 75 251 2.0 2.0 0.00 0.02 0.02 78 1018.1
20260831221706 76 44 1.0 2.0 0.00 0.02 0.02 79 1018.2
20260831221201 75 16 1.0 2.0 0.00 0.02 0.02 79 1017.9
20260831220655 75 58 0.0 1.0 0.00 0.02 0.02 80 1018.0
20260831220151 75 237 0.0 1.0 0.00 0.02 0.02 78 1018.3
20260831215646 75 13 1.0 2.0 0.00 0.02 0.02 80 1018.2
20260831215142 75 6 0.0 2.0 0.00 0.02 0.02 82 1018.3
20260831214639 75 17 0.0 1.0 0.00 0.02 0.02 82 1018.2
20260831214135 74 46 1.0 1.0 0.00 0.02 0.02 82 1018.3
20260831213631 74 25 0.0 1.0 0.00 0.02 0.02 81 1018.5
20260831213126 74 341 0.0 2.0 0.00 0.02 0.02 81 1018.3
20260831212623 74 294 0.0 1.0 0.00 0.02 0.02 82 1018.2
20260831212119 75 315 0.0 2.0 0.00 0.02 0.02 81 1018.5
20260831211618 75 274 1.0 2.0 0.00 0.02 0.02 82 1018.4
20260831211117 75 252 3.0 3.0 0.00 0.02 0.02 81 1018.6
20260831210613 75 278 2.0 2.0 0.00 0.02 0.02 81 1018.5
20260831210109 75 248 3.0 3.0 0.00 0.02 0.02 80 1018.4
20260831205608 75 307 1.0 2.0 0.00 0.02 0.02 78 1018.4
20260831205104 75 13 0.0 2.0 0.00 0.02 0.02 77 1018.5
20260831204559 75 16 0.0 1.0 0.00 0.02 0.02 78 1018.6
20260831204057 75 278 1.0 2.0 0.00 0.02 0.02 79 1018.5
20260831203552 75 310 0.0 2.0 0.00 0.02 0.02 80 1018.8
20260831203051 75 324 1.0 2.0 0.00 0.02 0.02 80 1018.7
20260831202550 75 309 0.0 3.0 0.00 0.02 0.02 80 1018.8
20260831202050 75 328 1.0 1.0 0.00 0.02 0.02 81 1018.6
20260831201549 75 321 1.0 2.0 0.00 0.02 0.02 84 1018.7
20260831201044 74 0 1.0 2.0 0.00 0.02 0.02 85 1018.9
20260831200540 75 48 0.0 2.0 0.00 0.02 0.02 84 1018.9
20260831200040 74 12 1.0 2.0 0.00 0.02 0.02 83 1019.1
20260831195536 75 13 1.0 2.0 0.00 0.02 0.02 80 1018.9
20260831195031 75 12 2.0 2.0 0.00 0.02 0.02 80 1018.9
20260831194526 75 34 1.0 2.0 0.02 0.02 0.02 79 1018.7
20260831194026 74 0 1.0 2.0 0.05 0.02 0.02 83 1019.2
20260831193521 75 70 2.0 2.0 0.05 0.02 0.02 81 1019.2
20260831193016 75 23 2.0 2.0 0.05 0.01 0.01 79 1019.2
20260831192511 75 339 0.0 1.0 0.02 0.01 0.01 77 1019.3
20260831192007 75 352 0.0 1.0 0.00 0.00 0.00 77 1019.6
20260831191503 76 328 0.0 1.0 0.00 0.00 0.00 76 1019.3
20260831190958 76 336 0.0 1.0 0.02 0.00 0.00 76 1019.3
20260831190454 76 17 1.0 2.0 0.00 0.00 0.00 74 1019.4
20260831185952 76 6 0.0 2.0 0.00 0.00 0.00 74 1019.6
20260831185448 76 327 2.0 2.0 0.00 0.00 0.00 73 1019.8
20260831184948 76 311 1.0 2.0 0.00 0.00 0.00 71 1019.6
20260831184443 76 27 1.0 2.0 0.00 0.00 0.00 72 1019.4
20260831183938 76 343 0.0 1.0 0.00 0.00 0.00 73 1019.6
20260831183437 76 0 0.0 2.0 0.00 0.00 0.00 72 1019.6
20260831182937 76 8 1.0 2.0 0.00 0.00 0.00 73 1019.6
20260831182432 76 0 0.0 1.0 0.00 0.00 0.00 70 1019.6
20260831181928 76 322 0.0 1.0 0.00 0.00 0.00 72 1019.7
20260831181424 76 297 0.0 2.0 0.00 0.00 0.00 71 1019.6
20260831180923 76 20 2.0 2.0 0.00 0.00 0.00 71 1019.6
20260831180417 76 343 2.0 2.0 0.00 0.00 0.00 71 1019.6
20260831175917 76 320 2.0 3.0 0.00 0.00 0.00 71 1019.8
20260831175414 76 43 2.0 2.0 0.00 0.00 0.00 71 1019.6
20260831174909 77 334 2.0 2.0 0.00 0.00 0.00 70 1019.7
20260831174404 77 45 1.0 2.0 0.00 0.00 0.00 69 1019.6
20260831173903 77 333 0.0 2.0 0.00 0.00 0.00 68 1019.9
20260831173357 77 315 0.0 2.0 0.00 0.00 0.00 68 1019.8
20260831172853 77 344 0.0 2.0 0.00 0.00 0.00 69 1020.0
20260831172349 76 7 2.0 2.0 0.00 0.00 0.00 69 1019.7
20260831171848 76 307 2.0 2.0 0.00 0.00 0.00 69 1019.7
20260831171344 76 293 0.0 2.0 0.00 0.00 0.00 68 1019.9
20260831170841 76 351 1.0 2.0 0.00 0.00 0.00 69 1019.8
20260831170337 76 330 1.0 2.0 0.00 0.00 0.00 69 1019.9
20260831165833 76 261 1.0 2.0 0.00 0.00 0.00 68 1019.9
20260831165329 77 295 1.0 3.0 0.00 0.00 0.00 69 1019.7
20260831164825 77 248 2.0 2.0 0.00 0.00 0.00 67 1019.7
20260831164321 77 337 2.0 2.0 0.00 0.00 0.00 66 1019.8
20260831163817 77 287 0.0 3.0 0.00 0.00 0.00 64 1019.5
20260831163312 78 295 2.0 3.0 0.00 0.00 0.00 65 1019.7
20260831162810 79 34 1.0 2.0 0.00 0.00 0.00 64 1019.8
20260831162307 79 32 1.0 2.0 0.00 0.00 0.00 65 1019.8
20260831161805 78 88 1.0 2.0 0.00 0.00 0.00 65 1019.8
20260831161302 78 88 1.0 2.0 0.00 0.00 0.00 65 1019.8
20260831160801 77 83 1.0 3.0 0.00 0.00 0.00 65 1019.8
20260831160256 78 275 2.0 2.0 0.00 0.00 0.00 65 1019.7
20260831155756 78 331 0.0 2.0 0.00 0.00 0.00 67 1019.7
20260831155252 77 100 1.0 2.0 0.00 0.00 0.00 66 1019.7
20260831154747 76 20 0.0 2.0 0.00 0.00 0.00 68 1019.8
20260831154243 76 93 2.0 2.0 0.00 0.00 0.00 69 1020.0
20260831153742 76 34 1.0 3.0 0.00 0.00 0.00 69 1020.0
20260831153238 76 98 3.0 4.0 0.00 0.00 0.00 71 1019.9
20260831152734 76 14 3.0 4.0 0.00 0.00 0.00 68 1020.0
20260831152230 76 57 2.0 2.0 0.00 0.00 0.00 71 1020.1
20260831151729 76 32 1.0 2.0 0.00 0.00 0.00 67 1020.1
20260831151223 76 63 1.0 3.0 0.00 0.00 0.00 71 1020.1
20260831150718 75 315 1.0 2.0 0.00 0.00 0.00 70 1020.0
20260831150214 75 74 3.0 4.0 0.00 0.00 0.00 70 1020.1
20260831145713 75 111 1.0 3.0 0.00 0.00 0.00 71 1020.2
20260831145209 75 32 2.0 2.0 0.00 0.00 0.00 71 1020.3
20260831144705 75 38 2.0 2.0 0.00 0.00 0.00 70 1020.3
20260831144201 75 55 1.0 3.0 0.00 0.00 0.00 73 1020.1
20260831143700 75 31 1.0 2.0 0.00 0.00 0.00 70 1020.2
20260831143155 75 279 2.0 2.0 0.00 0.00 0.00 71 1020.1
20260831142652 75 43 2.0 3.0 0.00 0.00 0.00 72 1020.3
20260831142147 74 101 3.0 3.0 0.00 0.00 0.00 72 1020.3
20260831141646 74 57 1.0 3.0 0.00 0.00 0.00 73 1020.2
20260831141141 74 67 2.0 3.0 0.00 0.00 0.00 74 1020.3
20260831140640 73 20 0.0 4.0 0.00 0.00 0.00 74 1020.2
20260831140135 73 59 2.0 2.0 0.00 0.00 0.00 76 1020.1
20260831135633 73 85 2.0 4.0 0.00 0.00 0.00 73 1020.2
20260831135129 73 68 2.0 6.0 0.00 0.00 0.00 72 1020.2
20260831134625 74 45 0.0 4.0 0.00 0.00 0.00 74 1020.1
20260831134121 74 76 2.0 4.0 0.00 0.00 0.00 74 1020.1
20260831133619 74 111 2.0 4.0 0.00 0.00 0.00 73 1020.0
20260831133115 74 78 0.0 5.0 0.00 0.00 0.00 72 1020.0
20260831132610 74 32 1.0 3.0 0.00 0.00 0.00 73 1020.0
20260831132109 74 59 2.0 2.0 0.00 0.00 0.00 74 1020.0
20260831131604 74 24 2.0 2.0 0.00 0.00 0.00 73 1019.9
20260831131100 74 30 2.0 2.0 0.00 0.00 0.00 75 1020.0
20260831130555 74 53 2.0 2.0 0.00 0.00 0.00 75 1019.9
20260831130051 74 76 1.0 3.0 0.00 0.00 0.00 74 1019.8
20260831125550 74 84 1.0 2.0 0.00 0.00 0.00 76 1019.9
20260831125045 72 51 2.0 3.0 0.00 0.00 0.00 81 1020.0
20260831124542 71 20 2.0 2.0 0.00 0.00 0.00 83 1020.1
20260831124037 71 18 2.0 4.0 0.00 0.00 0.00 84 1020.2
20260831123536 70 15 2.0 2.0 0.00 0.00 0.00 86 1020.1
20260831123031 70 343 0.0 2.0 0.00 0.00 0.00 87 1020.1
20260831122530 70 29 2.0 2.0 0.00 0.00 0.00 87 1020.1
20260831122027 70 25 1.0 2.0 0.00 0.00 0.00 88 1020.1
20260831121526 69 6 1.0 1.0 0.00 0.00 0.00 89 1019.9
20260831121023 69 348 1.0 2.0 0.00 0.00 0.00 89 1020.3
20260831120522 69 0 0.0 3.0 0.00 0.00 0.00 90 1020.2
20260831120018 69 40 3.0 4.0 0.00 0.00 0.00 90 1020.0
20260831115514 69 19 2.0 3.0 0.00 0.00 0.00 91 1020.2
20260831115009 69 20 2.0 3.0 0.00 0.00 0.00 91 1019.9
20260831114508 68 37 0.0 2.0 0.00 0.00 0.00 91 1019.8
20260831114003 68 20 0.0 2.0 0.00 0.00 0.00 92 1019.8
20260831113502 68 40 2.0 2.0 0.00 0.00 0.00 93 1019.9
20260831112958 68 354 1.0 3.0 0.00 0.00 0.00 94 1019.8
20260831112457 68 353 2.0 2.0 0.00 0.00 0.00 94 1019.9
20260831111952 68 53 2.0 2.0 0.00 0.00 0.00 94 1019.8
20260831111448 68 354 1.0 2.0 0.00 0.00 0.00 95 1019.9
20260831110944 67 18 2.0 2.0 0.00 0.00 0.00 95 1019.8
20260831110439 67 345 1.0 3.0 0.00 0.00 0.00 95 1019.6
20260831105937 67 31 2.0 3.0 0.00 0.00 0.00 95 1019.4
20260831105433 67 346 2.0 2.0 0.00 0.00 0.00 95 1019.2
20260831104928 66 350 1.0 2.0 0.00 0.00 0.00 95 1019.1
20260831104424 67 55 2.0 3.0 0.00 0.00 0.00 96 1019.2
20260831103920 66 25 0.0 2.0 0.00 0.00 0.00 96 1019.3
20260831103414 66 35 2.0 2.0 0.00 0.00 0.00 96 1019.3
20260831102910 66 17 1.0 2.0 0.00 0.00 0.00 96 1019.4
20260831102409 67 47 2.0 2.0 0.00 0.00 0.00 96 1019.3
20260831101905 67 22 2.0 2.0 0.00 0.00 0.00 96 1019.3
20260831101400 67 32 2.0 3.0 0.00 0.00 0.00 96 1019.2
20260831100856 67 20 2.0 2.0 0.00 0.00 0.00 96 1019.1
20260831100352 67 27 2.0 2.0 0.00 0.00 0.00 96 1019.3
20260831095852 67 32 2.0 3.0 0.00 0.00 0.00 96 1019.2
20260831095351 67 38 1.0 2.0 0.00 0.00 0.00 96 1019.2
20260831094846 67 44 2.0 2.0 0.00 0.00 0.00 96 1019.2
20260831094342 67 31 2.0 2.0 0.00 0.00 0.00 96 1019.3
20260831093838 67 14 2.0 2.0 0.00 0.00 0.00 96 1018.8
20260831093333 67 317 1.0 2.0 0.00 0.00 0.00 96 1018.8
20260831092830 67 18 2.0 2.0 0.00 0.00 0.00 96 1018.9
20260831092325 67 354 2.0 2.0 0.00 0.00 0.00 95 1019.0
20260831091820 67 304 2.0 2.0 0.00 0.00 0.00 95 1018.8
20260831091316 67 18 2.0 2.0 0.00 0.00 0.00 95 1018.6
20260831090811 67 57 0.0 3.0 0.00 0.00 0.00 95 1018.8
20260831090307 67 35 2.0 3.0 0.00 0.00 0.00 95 1018.8
20260831085803 68 11 2.0 3.0 0.00 0.00 0.00 95 1018.9
20260831085258 68 28 2.0 3.0 0.00 0.00 0.00 94 1018.7
20260831084758 68 36 2.0 2.0 0.00 0.00 0.00 94 1018.8
20260831084254 68 357 2.0 2.0 0.00 0.00 0.00 94 1018.7
20260831083749 68 27 0.0 2.0 0.00 0.00 0.00 94 1018.8
20260831083245 68 27 2.0 3.0 0.00 0.00 0.00 94 1018.8
20260831082743 68 3 1.0 2.0 0.00 0.00 0.00 95 1018.9
20260831082239 68 13 2.0 3.0 0.00 0.00 0.00 95 1018.9
20260831081734 68 359 2.0 3.0 0.00 0.00 0.00 95 1018.8
20260831081230 68 17 3.0 3.0 0.00 0.00 0.00 96 1018.6
20260831080725 68 25 0.0 2.0 0.00 0.00 0.00 96 1018.7
20260831080220 68 81 0.0 2.0 0.00 0.00 0.00 96 1018.8
20260831075716 68 56 2.0 2.0 0.00 0.00 0.00 96 1018.7
20260831075212 69 19 2.0 2.0 0.00 0.00 0.00 96 1018.8
20260831074711 69 20 2.0 3.0 0.00 0.00 0.00 97 1018.8
20260831074210 69 18 2.0 2.0 0.00 0.00 0.00 96 1018.7
20260831073706 69 36 2.0 2.0 0.00 0.00 0.00 96 1018.9
20260831073205 69 22 1.0 2.0 0.00 0.00 0.00 97 1018.9
20260831072700 70 25 2.0 2.0 0.00 0.00 0.00 97 1018.9
20260831072157 70 19 1.0 2.0 0.00 0.00 0.00 97 1018.8
20260831071656 70 26 2.0 2.0 0.00 0.00 0.00 97 1018.8
20260831071151 70 47 2.0 2.0 0.00 0.00 0.00 96 1018.7
20260831070650 70 22 2.0 2.0 0.00 0.00 0.00 96 1018.8
20260831070145 71 27 2.0 2.0 0.00 0.00 0.00 96 1018.8
20260831065644 71 17 2.0 2.0 0.00 0.00 0.00 96 1018.9
20260831065143 71 25 2.0 2.0 0.00 0.00 0.00 96 1018.6
20260831064638 71 38 2.0 2.0 0.00 0.00 0.00 96 1018.6
20260831064133 71 28 2.0 2.0 0.00 0.00 0.00 96 1018.7
20260831063629 71 26 1.0 2.0 0.00 0.00 0.00 96 1018.7
20260831063124 71 21 1.0 2.0 0.00 0.00 0.00 96 1018.8
20260831062618 71 24 2.0 2.0 0.00 0.00 0.00 95 1018.6
20260831062118 71 19 2.0 2.0 0.00 0.00 0.00 95 1018.7
20260831061616 71 24 1.0 2.0 0.00 0.00 0.00 95 1018.7
20260831061112 71 338 1.0 2.0 0.00 0.00 0.00 95 1019.0
20260831060608 71 41 2.0 2.0 0.00 0.00 0.00 95 1018.9
20260831060103 71 344 1.0 2.0 0.00 0.00 0.00 95 1018.9
20260831055602 72 9 1.0 2.0 0.00 0.00 0.00 95 1018.8
20260831055058 72 336 1.0 2.0 0.00 0.00 0.00 95 1018.6
20260831054557 72 341 0.0 1.0 0.00 0.00 0.00 95 1018.5
20260831054057 72 322 0.0 1.0 0.00 0.00 0.00 96 1018.5
20260831053555 72 314 0.0 2.0 0.00 0.00 0.00 96 1018.2
20260831053050 72 23 1.0 2.0 0.00 0.00 0.00 96 1018.5
20260831052549 72 21 2.0 2.0 0.00 0.00 0.00 96 1018.2
20260831052049 72 9 1.0 2.0 0.00 0.00 0.00 96 1018.2
20260831051548 72 47 2.0 2.0 0.00 0.00 0.00 96 1018.3
20260831051047 72 14 1.0 2.0 0.00 0.00 0.00 96 1018.5
20260831050547 72 50 2.0 2.0 0.00 0.00 0.00 96 1018.6
20260831050045 72 17 2.0 2.0 0.00 0.00 0.00 95 1018.8
20260831045545 72 315 0.0 3.0 0.00 0.00 0.00 95 1018.8
20260831045041 72 26 0.0 1.0 0.00 0.00 0.00 95 1018.8
20260831044536 72 22 2.0 3.0 0.00 0.00 0.00 95 1018.8
20260831044031 72 358 2.0 2.0 0.00 0.00 0.00 95 1018.9
20260831043531 72 38 2.0 2.0 0.00 0.00 0.00 95 1019.0
20260831043027 72 8 2.0 2.0 0.00 0.00 0.00 94 1018.8
20260831042526 72 32 2.0 2.0 0.00 0.00 0.00 94 1018.9
20260831042026 73 18 1.0 2.0 0.00 0.00 0.00 94 1018.8
20260831041516 73 13 0.0 1.0 0.00 0.00 0.00 94 1018.9
20260831041015 73 13 1.0 2.0 0.00 0.00 0.00 94 1018.9
20260831040510 73 340 1.0 1.0 0.00 0.00 0.00 94 1018.9
20260831040010 73 35 1.0 2.0 0.00 0.01 0.01 93 1018.9
20260831035507 73 39 0.0 2.0 0.00 0.01 0.01 92 1018.9
20260831035003 73 21 2.0 2.0 0.00 0.01 0.01 92 1019.0
20260831034457 73 354 0.0 1.0 0.00 0.01 0.01 92 1019.1
20260831033952 73 336 0.0 1.0 0.00 0.01 0.01 92 1018.8
20260831033448 73 18 1.0 2.0 0.00 0.01 0.01 92 1018.8
20260831032943 74 42 1.0 1.0 0.00 0.01 0.01 92 1018.6
20260831032443 73 19 0.0 2.0 0.00 0.01 0.01 92 1018.7
20260831031939 73 38 2.0 2.0 0.00 0.01 0.01 92 1018.7
20260831031438 74 61 2.0 2.0 0.00 0.01 0.01 92 1018.8
20260831030937 74 37 2.0 2.0 0.00 0.01 0.01 92 1018.8
20260831030437 74 342 2.0 2.0 0.00 0.01 0.01 92 1018.9
20260831025935 74 343 0.0 1.0 0.00 0.01 0.01 92 1018.7
20260831025434 74 309 0.0 1.0 0.00 0.01 0.01 91 1018.6
20260831024930 74 326 0.0 1.0 0.00 0.01 0.01 91 1018.8
20260831024430 74 293 1.0 2.0 0.00 0.01 0.01 90 1018.9
20260831023925 74 308 0.0 1.0 0.00 0.01 0.01 90 1018.6
20260831023423 75 37 2.0 2.0 0.00 0.01 0.01 90 1018.7
20260831022918 74 311 2.0 2.0 0.00 0.01 0.01 90 1018.7
20260831022417 74 19 1.0 2.0 0.00 0.01 0.01 89 1018.8
20260831021912 74 5 1.0 2.0 0.00 0.01 0.01 89 1018.6
20260831021411 74 34 1.0 2.0 0.00 0.01 0.01 89 1018.6
20260831020908 74 42 1.0 3.0 0.00 0.01 0.01 88 1019.0
20260831020407 74 7 3.0 3.0 0.00 0.01 0.01 88 1018.7
20260831015902 74 24 2.0 2.0 0.00 0.01 0.01 88 1018.7
20260831015358 75 26 1.0 2.0 0.00 0.01 0.01 87 1018.5
20260831014858 75 32 1.0 2.0 0.00 0.01 0.01 87 1018.7
20260831014353 75 17 2.0 2.0 0.00 0.01 0.01 87 1018.7
20260831013849 75 353 1.0 2.0 0.00 0.01 0.01 87 1018.8
20260831013344 75 26 1.0 2.0 0.00 0.01 0.01 87 1018.9
20260831012837 75 326 0.0 1.0 0.00 0.01 0.01 88 1018.9
20260831012334 74 25 1.0 1.0 0.00 0.01 0.01 89 1018.8
20260831011833 75 16 2.0 2.0 0.00 0.01 0.01 89 1018.8
20260831011328 75 21 2.0 2.0 0.00 0.01 0.01 89 1018.9
20260831010824 75 39 1.0 1.0 0.00 0.01 0.01 88 1018.9
20260831010324 75 56 1.0 2.0 0.00 0.01 0.01 87 1019.0
20260831005820 75 31 2.0 2.0 0.00 0.01 0.01 87 1018.7
20260831005316 76 17 1.0 2.0 0.00 0.01 0.01 87 1018.4
20260831004816 76 2 1.0 2.0 0.00 0.01 0.01 87 1018.4
20260831004312 76 328 0.0 2.0 0.00 0.01 0.01 86 1018.3
20260831003807 76 328 2.0 2.0 0.00 0.01 0.01 86 1018.4
20260831003304 76 32 0.0 2.0 0.00 0.01 0.01 86 1018.2
20260831002803 76 29 1.0 2.0 0.00 0.01 0.01 85 1018.2
20260831002305 76 14 1.0 2.0 0.00 0.01 0.01 85 1018.3
20260831001758 76 19 1.0 2.0 0.00 0.01 0.01 85 1018.1
20260831001253 75 27 2.0 2.0 0.00 0.01 0.01 85 1018.0
20260831000751 76 39 1.0 2.0 0.00 0.01 0.01 85 1017.9
20260831000250 76 21 2.0 2.0 0.00 0.01 0.01 85 1018.0
20260830235749 76 10 2.0 2.0 0.00 0.01 0.01 84 1018.0
20260830235244 76 21 1.0 2.0 0.00 0.01 0.01 84 1018.0
20260830234739 76 322 0.0 1.0 0.00 0.01 0.01 84 1018.0
20260830234235 76 6 1.0 2.0 0.00 0.01 0.01 83 1017.9